Time,TemperatureF,DewpointF,PressureIn,WindDirection,WindDirectionDegrees,WindSpeedMPH,WindSpeedGustMPH,Humidity,HourlyPrecipIn,Conditions,Clouds,dailyrainin,SoftwareType,DateUTC
2013-03-21 00:00:00,34.9,32.2,30.04,SE,135,0.0,1.1,90,0.00,,,0.00,WUHU21623XXSP,2013-03-21 07:00:00,
2013-03-21 00:06:00,34.9,32.2,30.04,SE,135,2.0,2.0,90,0.00,,,0.00,WUHU21623XXSP,2013-03-21 07:06:00,
2013-03-21 00:12:00,34.9,32.2,30.04,SSE,157,1.3,3.4,90,0.00,,,0.00,WUHU21623XXSP,2013-03-21 07:12:00,
2013-03-21 00:17:00,34.9,32.2,30.04,SE,135,0.0,3.6,90,0.00,,,0.00,WUHU21623XXSP,2013-03-21 07:17:00,
2013-03-21 00:22:00,35.2,32.5,30.04,SE,135,0.0,2.9,90,0.00,,,0.00,WUHU21623XXSP,2013-03-21 07:22:00,
2013-03-21 00:28:00,35.1,32.4,30.04,SE,135,0.0,2.9,90,0.00,,,0.00,WUHU21623XXSP,2013-03-21 07:28:00,
2013-03-21 00:33:00,35.1,32.4,30.04,SE,135,0.0,1.6,90,0.00,,,0.00,WUHU21623XXSP,2013-03-21 07:33:00,
2013-03-21 00:39:00,35.2,32.5,30.05,SE,135,0.0,0.0,90,0.00,,,0.00,WUHU21623XXSP,2013-03-21 07:39:00,
2013-03-21 00:44:00,35.2,32.8,30.05,SE,135,0.0,0.0,91,0.00,,,0.00,WUHU21623XXSP,2013-03-21 07:44:00,
2013-03-21 00:50:00,35.2,32.8,30.05,SE,135,0.0,0.0,91,0.00,,,0.00,WUHU21623XXSP,2013-03-21 07:50:00,
2013-03-21 00:57:00,35.2,32.8,30.05,SE,135,0.0,0.0,91,0.00,,,0.00,WUHU21623XXSP,2013-03-21 07:57:00,
2013-03-21 01:02:00,35.2,32.8,30.05,SE,135,0.0,0.0,91,0.00,,,0.00,WUHU21623XXSP,2013-03-21 08:02:00,
2013-03-21 01:08:00,35.2,32.8,30.06,SE,135,0.0,0.0,91,0.00,,,0.00,WUHU21623XXSP,2013-03-21 08:08:00,
2013-03-21 01:13:00,35.2,32.8,30.07,ESE,112,0.0,0.0,91,0.00,,,0.00,WUHU21623XXSP,2013-03-21 08:13:00,
2013-03-21 01:18:00,35.2,32.8,30.07,ESE,112,0.0,0.0,91,0.00,,,0.00,WUHU21623XXSP,2013-03-21 08:18:00,
2013-03-21 01:26:00,35.2,32.8,30.07,SE,135,1.6,1.6,91,0.00,,,0.00,WUHU21623XXSP,2013-03-21 08:26:00,
2013-03-21 01:31:00,35.4,33.0,30.07,East,90,0.0,1.6,91,0.00,,,0.00,WUHU21623XXSP,2013-03-21 08:31:00,
2013-03-21 01:37:00,35.4,33.0,30.07,East,90,0.0,0.0,91,0.00,,,0.00,WUHU21623XXSP,2013-03-21 08:37:00,
2013-03-21 01:43:00,35.4,33.0,30.07,East,90,0.0,0.0,91,0.00,,,0.00,WUHU21623XXSP,2013-03-21 08:43:00,
2013-03-21 01:48:00,35.4,33.0,30.07,East,90,0.0,0.0,91,0.00,,,0.00,WUHU21623XXSP,2013-03-21 08:48:00,
2013-03-21 01:52:00,35.2,32.8,30.08,East,90,0.0,0.0,91,0.00,,,0.00,WUHU21623XXSP,2013-03-21 08:52:00,
2013-03-21 01:54:00,35.2,32.8,30.08,East,90,0.0,0.0,91,0.00,,,0.00,WUHU21623XXSP,2013-03-21 08:54:00,
2013-03-21 01:59:00,35.2,32.8,30.08,East,90,0.0,0.0,91,0.00,,,0.00,WUHU21623XXSP,2013-03-21 08:59:00,
2013-03-21 02:04:00,35.2,32.8,30.08,East,90,0.0,0.0,91,0.00,,,0.00,WUHU21623XXSP,2013-03-21 09:04:00,
2013-03-21 02:13:00,35.2,32.8,30.08,East,90,0.0,0.0,91,0.00,,,0.00,WUHU21623XXSP,2013-03-21 09:13:00,
2013-03-21 02:21:00,35.2,32.8,30.09,East,90,0.0,0.0,91,0.00,,,0.00,WUHU21623XXSP,2013-03-21 09:21:00,
2013-03-21 02:26:00,34.9,32.7,30.09,East,90,0.0,0.0,92,0.00,,,0.00,WUHU21623XXSP,2013-03-21 09:26:00,
2013-03-21 02:33:00,34.9,32.7,30.09,NE,45,0.0,0.0,92,0.00,,,0.00,WUHU21623XXSP,2013-03-21 09:33:00,
2013-03-21 02:41:00,34.9,32.7,30.09,NE,45,0.0,0.0,92,0.00,,,0.00,WUHU21623XXSP,2013-03-21 09:41:00,
2013-03-21 02:46:00,34.9,32.7,30.10,NE,45,0.0,0.0,92,0.00,,,0.00,WUHU21623XXSP,2013-03-21 09:46:00,
2013-03-21 02:54:00,34.9,32.7,30.10,NE,45,0.0,0.0,92,0.00,,,0.00,WUHU21623XXSP,2013-03-21 09:54:00,
2013-03-21 02:59:00,34.9,32.7,30.10,NE,45,0.0,0.0,92,0.00,,,0.00,WUHU21623XXSP,2013-03-21 09:59:00,
2013-03-21 03:05:00,34.9,32.7,30.10,NE,45,0.0,0.0,92,0.00,,,0.00,WUHU21623XXSP,2013-03-21 10:05:00,
2013-03-21 03:12:00,34.9,32.7,30.11,ENE,67,0.0,0.0,92,0.00,,,0.00,WUHU21623XXSP,2013-03-21 10:12:00,
2013-03-21 03:17:00,34.9,32.7,30.11,ENE,67,0.0,0.0,92,0.00,,,0.00,WUHU21623XXSP,2013-03-21 10:17:00,
2013-03-21 03:25:00,34.9,32.7,30.12,ENE,67,0.0,0.0,92,0.00,,,0.00,WUHU21623XXSP,2013-03-21 10:25:00,
2013-03-21 03:34:00,34.9,32.7,30.11,SE,135,0.0,0.0,92,0.00,,,0.00,WUHU21623XXSP,2013-03-21 10:34:00,
2013-03-21 03:39:00,34.9,32.7,30.12,SE,135,0.0,0.0,92,0.00,,,0.00,WUHU21623XXSP,2013-03-21 10:39:00,
2013-03-21 03:44:00,34.9,32.7,30.12,ENE,67,0.0,0.0,92,0.00,,,0.00,WUHU21623XXSP,2013-03-21 10:44:00,
2013-03-21 03:49:00,34.9,32.7,30.12,ENE,67,0.0,0.0,92,0.00,,,0.00,WUHU21623XXSP,2013-03-21 10:49:00,
2013-03-21 03:55:00,34.9,32.7,30.12,ENE,67,0.0,0.0,92,0.00,,,0.00,WUHU21623XXSP,2013-03-21 10:55:00,
2013-03-21 04:00:00,34.7,32.5,30.12,ESE,112,0.0,0.0,92,0.00,,,0.00,WUHU21623XXSP,2013-03-21 11:00:00,
2013-03-21 04:05:00,34.7,32.5,30.12,ESE,112,0.0,0.0,92,0.00,,,0.00,WUHU21623XXSP,2013-03-21 11:05:00,
2013-03-21 04:12:00,34.7,32.5,30.12,ESE,112,0.0,0.0,92,0.00,,,0.00,WUHU21623XXSP,2013-03-21 11:12:00,
2013-03-21 04:17:00,34.7,32.5,30.12,ESE,112,0.0,0.0,92,0.00,,,0.00,WUHU21623XXSP,2013-03-21 11:17:00,
2013-03-21 04:23:00,34.5,32.4,30.12,ESE,112,0.0,0.0,92,0.00,,,0.00,WUHU21623XXSP,2013-03-21 11:23:00,
2013-03-21 04:28:00,34.5,32.4,30.12,East,90,0.0,0.0,92,0.00,,,0.00,WUHU21623XXSP,2013-03-21 11:28:00,
2013-03-21 04:33:00,34.3,32.2,30.12,East,90,0.0,0.0,92,0.00,,,0.00,WUHU21623XXSP,2013-03-21 11:33:00,
2013-03-21 04:40:00,34.3,32.2,30.12,East,90,0.0,0.0,92,0.00,,,0.00,WUHU21623XXSP,2013-03-21 11:40:00,
2013-03-21 04:50:00,34.3,32.2,30.12,East,90,0.0,0.0,92,0.00,,,0.00,WUHU21623XXSP,2013-03-21 11:50:00,
2013-03-21 04:55:00,34.3,32.2,30.13,South,180,0.0,0.0,92,0.00,,,0.00,WUHU21623XXSP,2013-03-21 11:55:00,
2013-03-21 05:00:00,34.3,32.2,30.13,South,180,0.0,0.0,92,0.00,,,0.00,WUHU21623XXSP,2013-03-21 12:00:00,
2013-03-21 05:05:00,34.3,32.2,30.13,South,180,0.0,0.0,92,0.00,,,0.00,WUHU21623XXSP,2013-03-21 12:05:00,
2013-03-21 05:11:00,34.5,32.4,30.13,South,180,0.0,0.0,92,0.00,,,0.00,WUHU21623XXSP,2013-03-21 12:11:00,
2013-03-21 05:18:00,34.7,32.5,30.13,SE,135,0.0,2.5,92,0.00,,,0.00,WUHU21623XXSP,2013-03-21 12:18:00,
2013-03-21 05:23:00,34.9,33.0,30.14,SE,135,0.0,0.0,93,0.00,,,0.00,WUHU21623XXSP,2013-03-21 12:23:00,
2013-03-21 05:28:00,34.9,33.0,30.14,SE,135,0.0,0.0,93,0.00,,,0.00,WUHU21623XXSP,2013-03-21 12:28:00,
2013-03-21 05:33:00,34.9,33.0,30.14,SE,135,0.0,0.0,93,0.00,,,0.00,WUHU21623XXSP,2013-03-21 12:33:00,
2013-03-21 05:39:00,34.9,33.0,30.14,SE,135,1.1,3.4,93,0.00,,,0.00,WUHU21623XXSP,2013-03-21 12:39:00,
2013-03-21 05:45:00,35.1,33.2,30.14,SW,225,1.3,4.3,93,0.00,,,0.00,WUHU21623XXSP,2013-03-21 12:45:00,
2013-03-21 05:50:00,35.2,33.4,30.14,WNW,292,0.0,4.3,93,0.00,,,0.00,WUHU21623XXSP,2013-03-21 12:50:00,
2013-03-21 05:56:00,35.2,33.4,30.14,WNW,292,0.0,0.9,93,0.00,,,0.00,WUHU21623XXSP,2013-03-21 12:56:00,
2013-03-21 06:01:00,35.2,33.4,30.14,WNW,292,0.0,0.9,93,0.00,,,0.00,WUHU21623XXSP,2013-03-21 13:01:00,
2013-03-21 06:05:00,35.2,33.4,30.14,WNW,292,0.0,0.0,93,0.00,,,0.00,WUHU21623XXSP,2013-03-21 13:05:00,
2013-03-21 06:11:00,35.2,33.4,30.14,WNW,292,0.0,0.0,93,0.00,,,0.00,WUHU21623XXSP,2013-03-21 13:11:00,
2013-03-21 06:17:00,35.2,33.4,30.14,WNW,292,0.0,0.0,93,0.00,,,0.00,WUHU21623XXSP,2013-03-21 13:17:00,
2013-03-21 06:22:00,35.2,33.4,30.15,WNW,292,0.0,0.0,93,0.00,,,0.00,WUHU21623XXSP,2013-03-21 13:22:00,
2013-03-21 06:28:00,35.2,33.4,30.15,WNW,292,0.0,0.0,93,0.00,,,0.00,WUHU21623XXSP,2013-03-21 13:28:00,
2013-03-21 06:33:00,35.2,33.4,30.15,WNW,292,0.0,0.0,93,0.00,,,0.00,WUHU21623XXSP,2013-03-21 13:33:00,
2013-03-21 06:39:00,35.4,33.5,30.15,WNW,292,0.0,0.0,93,0.00,,,0.00,WUHU21623XXSP,2013-03-21 13:39:00,
2013-03-21 06:44:00,35.4,33.5,30.15,WNW,292,0.0,0.0,93,0.00,,,0.00,WUHU21623XXSP,2013-03-21 13:44:00,
2013-03-21 06:49:00,35.4,33.5,30.15,WNW,292,0.0,0.0,93,0.00,,,0.00,WUHU21623XXSP,2013-03-21 13:49:00,
2013-03-21 06:54:00,35.4,33.5,30.15,WNW,292,0.7,0.9,93,0.00,,,0.00,WUHU21623XXSP,2013-03-21 13:54:00,
2013-03-21 07:00:00,35.4,33.5,30.15,WNW,292,0.0,0.9,93,0.00,,,0.00,WUHU21623XXSP,2013-03-21 14:00:00,
2013-03-21 07:05:00,35.4,33.5,30.16,WNW,292,0.0,0.0,93,0.00,,,0.00,WUHU21623XXSP,2013-03-21 14:05:00,
2013-03-21 07:11:00,35.4,33.5,30.16,WNW,292,0.0,0.0,93,0.02,,,0.02,WUHU21623XXSP,2013-03-21 14:11:00,
2013-03-21 07:16:00,35.4,33.5,30.16,WNW,292,0.0,0.0,93,0.02,,,0.02,WUHU21623XXSP,2013-03-21 14:16:00,
2013-03-21 07:22:00,35.4,33.5,30.16,WNW,292,0.0,0.0,93,0.02,,,0.02,WUHU21623XXSP,2013-03-21 14:22:00,
2013-03-21 07:27:00,35.6,33.7,30.16,WNW,292,0.0,0.0,93,0.02,,,0.02,WUHU21623XXSP,2013-03-21 14:27:00,
2013-03-21 07:32:00,35.6,33.7,30.15,WNW,292,0.0,0.0,93,0.02,,,0.02,WUHU21623XXSP,2013-03-21 14:32:00,
2013-03-21 07:38:00,35.8,33.9,30.15,WNW,292,0.0,0.0,93,0.02,,,0.02,WUHU21623XXSP,2013-03-21 14:38:00,
2013-03-21 07:43:00,35.8,33.9,30.16,WNW,292,0.0,0.0,93,0.02,,,0.02,WUHU21623XXSP,2013-03-21 14:43:00,
2013-03-21 07:49:00,35.8,33.9,30.16,WNW,292,0.0,0.0,93,0.02,,,0.02,WUHU21623XXSP,2013-03-21 14:49:00,
2013-03-21 07:55:00,35.8,33.9,30.16,WNW,292,0.0,0.0,93,0.02,,,0.02,WUHU21623XXSP,2013-03-21 14:55:00,
2013-03-21 08:00:00,36.0,34.1,30.16,WNW,292,0.0,0.0,93,0.02,,,0.02,WUHU21623XXSP,2013-03-21 15:00:00,
2013-03-21 08:05:00,36.0,34.1,30.16,WNW,292,0.0,0.0,93,0.02,,,0.02,WUHU21623XXSP,2013-03-21 15:05:00,
2013-03-21 08:10:00,36.1,34.3,30.16,WNW,292,0.0,0.0,93,0.00,,,0.02,WUHU21623XXSP,2013-03-21 15:10:00,
2013-03-21 08:15:00,36.3,34.4,30.16,WNW,292,0.0,0.0,93,0.00,,,0.02,WUHU21623XXSP,2013-03-21 15:15:00,
2013-03-21 08:23:00,36.3,34.4,30.17,WNW,292,0.0,0.0,93,0.00,,,0.02,WUHU21623XXSP,2013-03-21 15:23:00,
2013-03-21 08:29:00,36.5,34.6,30.16,WNW,292,0.0,0.0,93,0.00,,,0.02,WUHU21623XXSP,2013-03-21 15:29:00,
2013-03-21 08:34:00,36.7,34.8,30.17,WNW,292,0.0,0.0,93,0.00,,,0.02,WUHU21623XXSP,2013-03-21 15:34:00,
2013-03-21 08:39:00,37.0,35.1,30.17,NW,315,0.0,0.0,93,0.00,,,0.02,WUHU21623XXSP,2013-03-21 15:39:00,
2013-03-21 08:46:00,37.2,35.3,30.17,NW,315,0.0,0.0,93,0.00,,,0.02,WUHU21623XXSP,2013-03-21 15:46:00,
2013-03-21 08:51:00,37.2,35.3,30.17,WNW,292,0.0,0.9,93,0.00,,,0.02,WUHU21623XXSP,2013-03-21 15:51:00,
2013-03-21 08:56:00,37.6,35.7,30.17,WNW,292,0.0,0.9,93,0.00,,,0.02,WUHU21623XXSP,2013-03-21 15:56:00,
2013-03-21 09:01:00,37.8,35.9,30.17,WNW,292,0.0,0.7,93,0.00,,,0.02,WUHU21623XXSP,2013-03-21 16:01:00,
2013-03-21 09:08:00,37.9,36.0,30.17,WNW,292,0.0,0.7,93,0.00,,,0.02,WUHU21623XXSP,2013-03-21 16:08:00,
2013-03-21 09:13:00,38.1,36.2,30.17,WNW,292,0.0,0.0,93,0.00,,,0.02,WUHU21623XXSP,2013-03-21 16:13:00,
2013-03-21 09:18:00,38.5,36.6,30.18,WNW,292,0.0,0.0,93,0.00,,,0.02,WUHU21623XXSP,2013-03-21 16:18:00,
2013-03-21 09:23:00,38.5,36.6,30.17,WNW,292,0.0,0.0,93,0.00,,,0.02,WUHU21623XXSP,2013-03-21 16:23:00,
2013-03-21 09:29:00,38.7,36.8,30.18,SSE,157,0.7,3.4,93,0.00,,,0.02,WUHU21623XXSP,2013-03-21 16:29:00,
2013-03-21 09:36:00,39.0,37.1,30.18,SW,225,0.0,3.4,93,0.00,,,0.02,WUHU21623XXSP,2013-03-21 16:36:00,
2013-03-21 09:41:00,39.0,37.1,30.18,SW,225,0.0,0.0,93,0.00,,,0.02,WUHU21623XXSP,2013-03-21 16:41:00,
2013-03-21 09:47:00,39.0,37.1,30.18,SSW,202,0.0,0.0,93,0.00,,,0.02,WUHU21623XXSP,2013-03-21 16:47:00,
2013-03-21 09:52:00,39.0,37.1,30.19,WSW,247,0.0,0.0,93,0.00,,,0.02,WUHU21623XXSP,2013-03-21 16:52:00,
2013-03-21 09:57:00,39.4,37.2,30.19,WSW,247,0.0,0.7,92,0.00,,,0.02,WUHU21623XXSP,2013-03-21 16:57:00,
2013-03-21 10:02:00,39.2,37.0,30.19,North,0,0.7,3.4,92,0.00,,,0.02,WUHU21623XXSP,2013-03-21 17:02:00,
2013-03-21 10:07:00,39.0,36.9,30.19,NNE,22,0.0,3.4,92,0.00,,,0.02,WUHU21623XXSP,2013-03-21 17:07:00,
2013-03-21 10:12:00,38.8,36.7,30.19,NNE,22,0.0,1.8,92,0.00,,,0.02,WUHU21623XXSP,2013-03-21 17:12:00,
2013-03-21 10:18:00,38.8,36.4,30.19,NNE,22,1.6,2.2,91,0.02,,,0.04,WUHU21623XXSP,2013-03-21 17:18:00,
2013-03-21 10:26:00,38.5,36.0,30.19,NNE,22,0.0,2.2,91,0.02,,,0.04,WUHU21623XXSP,2013-03-21 17:26:00,
2013-03-21 10:31:00,38.3,35.9,30.20,NNE,22,2.0,3.8,91,0.02,,,0.04,WUHU21623XXSP,2013-03-21 17:31:00,
2013-03-21 10:37:00,38.5,36.0,30.19,NNE,22,0.0,3.4,91,0.02,,,0.04,WUHU21623XXSP,2013-03-21 17:37:00,
2013-03-21 10:42:00,39.0,36.3,30.20,NNE,22,0.0,2.0,90,0.02,,,0.04,WUHU21623XXSP,2013-03-21 17:42:00,
2013-03-21 10:47:00,39.4,36.7,30.19,NNE,22,0.0,2.5,90,0.02,,,0.04,WUHU21623XXSP,2013-03-21 17:47:00,
2013-03-21 10:52:00,39.7,37.0,30.20,NNE,22,0.7,2.5,90,0.02,,,0.04,WUHU21623XXSP,2013-03-21 17:52:00,
2013-03-21 10:58:00,39.9,37.2,30.19,NNE,22,0.9,2.5,90,0.02,,,0.04,WUHU21623XXSP,2013-03-21 17:58:00,
2013-03-21 11:05:00,40.1,37.4,30.20,NNE,22,0.0,2.5,90,0.02,,,0.04,WUHU21623XXSP,2013-03-21 18:05:00,
2013-03-21 11:12:00,40.3,37.3,30.19,NNE,22,0.0,2.2,89,0.02,,,0.04,WUHU21623XXSP,2013-03-21 18:12:00,
2013-03-21 11:17:00,40.1,37.1,30.20,NNE,22,0.0,2.2,89,0.00,,,0.04,WUHU21623XXSP,2013-03-21 18:17:00,
2013-03-21 11:22:00,40.1,37.1,30.20,NNE,22,0.0,1.3,89,0.02,,,0.06,WUHU21623XXSP,2013-03-21 18:22:00,
2013-03-21 11:27:00,40.1,36.8,30.20,NNE,22,1.6,1.6,88,0.02,,,0.06,WUHU21623XXSP,2013-03-21 18:27:00,
2013-03-21 11:32:00,39.9,36.6,30.20,NNE,22,0.0,1.6,88,0.02,,,0.06,WUHU21623XXSP,2013-03-21 18:32:00,
2013-03-21 11:37:00,40.1,36.8,30.20,NE,45,0.0,1.6,88,0.02,,,0.06,WUHU21623XXSP,2013-03-21 18:37:00,
2013-03-21 11:42:00,40.3,37.0,30.20,East,90,2.9,2.9,88,0.02,,,0.06,WUHU21623XXSP,2013-03-21 18:42:00,
2013-03-21 11:47:00,40.6,37.3,30.21,North,0,0.0,2.9,88,0.02,,,0.06,WUHU21623XXSP,2013-03-21 18:47:00,
2013-03-21 11:52:00,41.0,37.7,30.20,North,0,1.6,1.6,88,0.02,,,0.06,WUHU21623XXSP,2013-03-21 18:52:00,
2013-03-21 11:59:00,41.2,37.9,30.20,NE,45,1.3,5.6,88,0.02,,,0.06,WUHU21623XXSP,2013-03-21 18:59:00,
2013-03-21 12:06:00,41.2,37.6,30.20,NNW,337,3.8,5.6,87,0.02,,,0.06,WUHU21623XXSP,2013-03-21 19:06:00,
2013-03-21 12:11:00,41.4,37.7,30.20,NW,315,2.0,3.8,87,0.02,,,0.06,WUHU21623XXSP,2013-03-21 19:11:00,
2013-03-21 12:16:00,41.4,37.7,30.21,NW,315,0.0,3.6,87,0.02,,,0.06,WUHU21623XXSP,2013-03-21 19:16:00,
2013-03-21 12:21:00,41.5,37.9,30.21,West,270,0.7,5.8,87,0.02,,,0.08,WUHU21623XXSP,2013-03-21 19:21:00,
2013-03-21 12:27:00,41.9,38.3,30.20,SW,225,0.0,5.8,87,0.02,,,0.08,WUHU21623XXSP,2013-03-21 19:27:00,
2013-03-21 12:32:00,42.6,39.0,30.20,SE,135,0.0,1.3,87,0.02,,,0.08,WUHU21623XXSP,2013-03-21 19:32:00,
2013-03-21 12:37:00,43.3,39.4,30.20,SSW,202,1.3,2.7,86,0.02,,,0.08,WUHU21623XXSP,2013-03-21 19:37:00,
2013-03-21 12:44:00,43.5,39.6,30.20,SW,225,0.0,2.7,86,0.02,,,0.08,WUHU21623XXSP,2013-03-21 19:44:00,
2013-03-21 12:49:00,44.2,39.4,30.20,North,0,2.2,7.2,83,0.02,,,0.08,WUHU21623XXSP,2013-03-21 19:49:00,
2013-03-21 12:54:00,43.9,38.7,30.20,NNW,337,1.8,7.2,82,0.02,,,0.08,WUHU21623XXSP,2013-03-21 19:54:00,
2013-03-21 12:59:00,43.0,37.5,30.20,NW,315,2.7,6.3,81,0.02,,,0.08,WUHU21623XXSP,2013-03-21 19:59:00,
2013-03-21 13:04:00,42.6,37.2,30.20,NNW,337,0.0,6.0,81,0.02,,,0.08,WUHU21623XXSP,2013-03-21 20:04:00,
2013-03-21 13:10:00,42.4,37.3,30.20,WNW,292,2.0,2.7,82,0.02,,,0.08,WUHU21623XXSP,2013-03-21 20:10:00,
2013-03-21 13:17:00,42.1,36.9,30.21,NW,315,0.2,4.7,82,0.00,,,0.08,WUHU21623XXSP,2013-03-21 20:17:00,
2013-03-21 13:22:00,41.4,36.5,30.21,NNW,337,0.9,3.1,83,0.02,,,0.10,WUHU21623XXSP,2013-03-21 20:22:00,
2013-03-21 13:27:00,41.2,36.3,30.21,South,180,3.8,3.8,83,0.02,,,0.10,WUHU21623XXSP,2013-03-21 20:27:00,
2013-03-21 13:32:00,41.0,36.2,30.21,SSE,157,0.0,3.8,83,0.04,,,0.12,WUHU21623XXSP,2013-03-21 20:32:00,
2013-03-21 13:37:00,41.2,36.6,30.21,SE,135,0.0,2.5,84,0.04,,,0.12,WUHU21623XXSP,2013-03-21 20:37:00,
2013-03-21 13:44:00,41.0,36.2,30.21,ESE,112,0.0,0.0,83,0.04,,,0.12,WUHU21623XXSP,2013-03-21 20:44:00,
2013-03-21 13:49:00,41.7,37.2,30.20,SE,135,0.0,2.2,84,0.04,,,0.12,WUHU21623XXSP,2013-03-21 20:49:00,
2013-03-21 13:54:00,42.4,37.7,30.20,SSE,157,2.7,4.3,84,0.04,,,0.12,WUHU21623XXSP,2013-03-21 20:54:00,
2013-03-21 14:00:00,42.6,38.1,30.20,South,180,0.0,4.3,84,0.04,,,0.12,WUHU21623XXSP,2013-03-21 21:00:00,
2013-03-21 14:06:00,43.9,39.6,30.20,ESE,112,0.0,2.5,85,0.04,,,0.12,WUHU21623XXSP,2013-03-21 21:06:00,
2013-03-21 14:11:00,45.1,40.6,30.19,South,180,2.0,3.6,84,0.04,,,0.12,WUHU21623XXSP,2013-03-21 21:11:00,
2013-03-21 14:16:00,46.6,42.3,30.19,SSW,202,1.6,4.9,85,0.04,,,0.12,WUHU21623XXSP,2013-03-21 21:16:00,
2013-03-21 14:22:00,47.5,42.9,30.19,South,180,1.1,4.9,83,0.02,,,0.12,WUHU21623XXSP,2013-03-21 21:22:00,
2013-03-21 14:27:00,48.7,43.1,30.19,SE,135,2.2,2.2,81,0.00,,,0.12,WUHU21623XXSP,2013-03-21 21:27:00,
2013-03-21 14:32:00,49.1,43.2,30.18,SSE,157,0.0,2.9,80,0.00,,,0.12,WUHU21623XXSP,2013-03-21 21:32:00,
2013-03-21 14:39:00,49.6,43.0,30.18,SSE,157,2.5,6.0,78,0.00,,,0.12,WUHU21623XXSP,2013-03-21 21:39:00,
2013-03-21 14:46:00,50.2,43.6,30.17,South,180,1.3,3.4,78,0.00,,,0.12,WUHU21623XXSP,2013-03-21 21:46:00,
2013-03-21 14:51:00,50.5,43.2,30.17,South,180,2.7,4.3,76,0.00,,,0.12,WUHU21623XXSP,2013-03-21 21:51:00,
2013-03-21 14:56:00,50.7,43.4,30.17,SSE,157,0.0,4.9,76,0.00,,,0.12,WUHU21623XXSP,2013-03-21 21:56:00,
2013-03-21 15:01:00,51.1,43.4,30.17,SSE,157,1.6,4.9,75,0.00,,,0.12,WUHU21623XXSP,2013-03-21 22:01:00,
2013-03-21 15:09:00,50.7,42.7,30.17,SSW,202,0.0,4.7,74,0.00,,,0.12,WUHU21623XXSP,2013-03-21 22:09:00,
2013-03-21 15:16:00,50.0,41.7,30.17,SSW,202,0.0,0.9,73,0.02,,,0.14,WUHU21623XXSP,2013-03-21 22:16:00,
2013-03-21 15:21:00,49.1,40.8,30.17,SW,225,0.0,2.5,73,0.02,,,0.14,WUHU21623XXSP,2013-03-21 22:21:00,
2013-03-21 15:26:00,48.6,40.2,30.17,SSE,157,2.7,2.9,73,0.02,,,0.14,WUHU21623XXSP,2013-03-21 22:26:00,
2013-03-21 15:31:00,48.2,40.2,30.17,SE,135,0.0,2.9,74,0.04,,,0.14,WUHU21623XXSP,2013-03-21 22:31:00,
2013-03-21 15:36:00,48.0,40.0,30.17,SE,135,0.0,2.7,74,0.04,,,0.16,WUHU21623XXSP,2013-03-21 22:36:00,
2013-03-21 15:41:00,48.0,40.4,30.17,ENE,67,0.0,1.1,75,0.04,,,0.16,WUHU21623XXSP,2013-03-21 22:41:00,
2013-03-21 15:46:00,47.8,40.2,30.17,ENE,67,0.0,1.1,75,0.04,,,0.16,WUHU21623XXSP,2013-03-21 22:46:00,
2013-03-21 15:52:00,47.8,40.2,30.17,ENE,67,0.0,1.1,75,0.04,,,0.16,WUHU21623XXSP,2013-03-21 22:52:00,
2013-03-21 15:57:00,47.5,39.6,30.17,SSW,202,1.3,1.3,74,0.04,,,0.16,WUHU21623XXSP,2013-03-21 22:57:00,
2013-03-21 16:02:00,47.8,40.6,30.17,SSW,202,0.0,3.8,76,0.04,,,0.16,WUHU21623XXSP,2013-03-21 23:02:00,
2013-03-21 16:07:00,48.2,40.9,30.16,SSW,202,0.7,3.8,76,0.04,,,0.16,WUHU21623XXSP,2013-03-21 23:07:00,
2013-03-21 16:12:00,48.7,41.4,30.16,SW,225,0.0,4.3,76,0.02,,,0.16,WUHU21623XXSP,2013-03-21 23:12:00,
2013-03-21 16:17:00,49.1,41.3,30.16,SSE,157,2.7,5.4,76,0.02,,,0.16,WUHU21623XXSP,2013-03-21 23:17:00,
2013-03-21 16:22:00,49.1,41.5,30.16,South,180,0.0,5.4,75,0.02,,,0.16,WUHU21623XXSP,2013-03-21 23:22:00,
2013-03-21 16:28:00,48.9,41.3,30.17,South,180,2.5,5.4,75,0.00,,,0.16,WUHU21623XXSP,2013-03-21 23:28:00,
2013-03-21 16:33:00,48.6,40.9,30.17,West,270,0.0,4.0,75,0.00,,,0.16,WUHU21623XXSP,2013-03-21 23:33:00,
2013-03-21 16:38:00,48.2,39.9,30.17,NW,315,2.7,6.3,73,0.00,,,0.16,WUHU21623XXSP,2013-03-21 23:38:00,
2013-03-21 16:45:00,48.0,39.7,30.17,WNW,292,1.6,6.3,73,0.00,,,0.16,WUHU21623XXSP,2013-03-21 23:45:00,
2013-03-21 16:54:00,47.8,38.5,30.17,NW,315,4.7,5.8,70,0.00,,,0.16,WUHU21623XXSP,2013-03-21 23:54:00,
2013-03-21 17:01:00,47.8,38.5,30.17,WSW,247,0.0,2.0,70,0.00,,,0.16,WUHU21623XXSP,2013-03-22 00:01:00,
2013-03-21 17:08:00,47.8,38.1,30.17,NW,315,1.8,6.9,69,0.00,,,0.16,WUHU21623XXSP,2013-03-22 00:08:00,
2013-03-21 17:16:00,47.1,37.5,30.17,NNW,337,5.6,8.7,69,0.00,,,0.16,WUHU21623XXSP,2013-03-22 00:16:00,
2013-03-21 17:21:00,45.7,35.7,30.17,NNW,337,6.7,9.2,68,0.00,,,0.16,WUHU21623XXSP,2013-03-22 00:21:00,
2013-03-21 17:26:00,45.7,35.7,30.17,NNW,337,0.0,9.2,68,0.00,,,0.16,WUHU21623XXSP,2013-03-22 00:26:00,
2013-03-21 17:32:00,45.0,35.8,30.17,WNW,292,0.0,8.7,70,0.00,,,0.16,WUHU21623XXSP,2013-03-22 00:32:00,
2013-03-21 17:37:00,45.0,35.8,30.17,NW,315,0.0,8.7,70,0.00,,,0.16,WUHU21623XXSP,2013-03-22 00:37:00,
2013-03-21 17:44:00,44.4,35.6,30.18,WNW,292,3.4,5.6,71,0.00,,,0.16,WUHU21623XXSP,2013-03-22 00:44:00,
2013-03-21 17:50:00,44.1,35.6,30.17,NNW,337,3.1,7.2,72,0.00,,,0.16,WUHU21623XXSP,2013-03-22 00:50:00,
2013-03-21 17:55:00,43.3,34.9,30.18,WNW,292,2.7,8.3,72,0.00,,,0.16,WUHU21623XXSP,2013-03-22 00:55:00,
2013-03-21 18:00:00,43.0,35.3,30.18,WNW,292,0.9,8.3,74,0.00,,,0.16,WUHU21623XXSP,2013-03-22 01:00:00,
2013-03-21 18:07:00,43.0,35.3,30.17,WNW,292,0.9,7.4,74,0.00,,,0.16,WUHU21623XXSP,2013-03-22 01:07:00,
2013-03-21 18:13:00,43.0,35.6,30.17,West,270,0.7,4.7,75,0.00,,,0.16,WUHU21623XXSP,2013-03-22 01:13:00,
2013-03-21 18:21:00,42.6,34.9,30.17,WNW,292,3.8,6.3,74,0.00,,,0.16,WUHU21623XXSP,2013-03-22 01:21:00,
2013-03-21 18:27:00,42.4,35.1,30.17,NW,315,1.1,3.8,75,0.00,,,0.16,WUHU21623XXSP,2013-03-22 01:27:00,
2013-03-21 18:32:00,42.3,35.2,30.18,West,270,0.0,4.5,76,0.00,,,0.16,WUHU21623XXSP,2013-03-22 01:32:00,
2013-03-21 18:38:00,42.1,35.0,30.17,West,270,0.0,4.5,76,0.00,,,0.16,WUHU21623XXSP,2013-03-22 01:38:00,
2013-03-21 18:44:00,41.9,34.8,30.17,NW,315,0.0,2.0,76,0.00,,,0.16,WUHU21623XXSP,2013-03-22 01:44:00,
2013-03-21 18:51:00,41.7,35.0,30.17,WNW,292,0.0,4.5,77,0.00,,,0.16,WUHU21623XXSP,2013-03-22 01:51:00,
2013-03-21 18:56:00,41.4,34.6,30.17,WNW,292,0.0,5.8,77,0.00,,,0.16,WUHU21623XXSP,2013-03-22 01:56:00,
2013-03-21 19:02:00,41.2,34.4,30.17,NW,315,4.5,6.9,77,0.00,,,0.16,WUHU21623XXSP,2013-03-22 02:02:00,
2013-03-21 19:07:00,41.2,34.4,30.17,West,270,1.3,6.9,77,0.00,,,0.16,WUHU21623XXSP,2013-03-22 02:07:00,
2013-03-21 19:12:00,41.0,34.3,30.17,WNW,292,0.0,6.9,77,0.00,,,0.16,WUHU21623XXSP,2013-03-22 02:12:00,
2013-03-21 19:19:00,40.8,34.1,30.17,WNW,292,3.4,3.4,77,0.00,,,0.16,WUHU21623XXSP,2013-03-22 02:19:00,
2013-03-21 19:24:00,40.6,34.3,30.17,WNW,292,0.0,3.4,78,0.00,,,0.16,WUHU21623XXSP,2013-03-22 02:24:00,
2013-03-21 19:30:00,40.3,34.3,30.17,NW,315,0.0,2.2,79,0.00,,,0.16,WUHU21623XXSP,2013-03-22 02:30:00,
2013-03-21 19:35:00,39.9,33.9,30.17,West,270,0.0,1.3,79,0.00,,,0.16,WUHU21623XXSP,2013-03-22 02:35:00,
2013-03-21 19:42:00,39.9,33.9,30.17,West,270,0.0,0.0,79,0.00,,,0.16,WUHU21623XXSP,2013-03-22 02:42:00,
2013-03-21 19:47:00,39.4,33.8,30.18,NNW,337,0.2,5.1,80,0.00,,,0.16,WUHU21623XXSP,2013-03-22 02:47:00,
2013-03-21 19:54:00,39.4,34.1,30.18,NNW,337,0.0,5.1,81,0.00,,,0.16,WUHU21623XXSP,2013-03-22 02:54:00,
2013-03-21 20:00:00,39.2,33.9,30.18,NNW,337,0.0,0.0,81,0.00,,,0.16,WUHU21623XXSP,2013-03-22 03:00:00,
2013-03-21 20:05:00,39.0,33.7,30.18,West,270,0.0,0.0,81,0.00,,,0.16,WUHU21623XXSP,2013-03-22 03:05:00,
2013-03-21 20:10:00,39.0,34.0,30.18,West,270,0.0,0.0,82,0.00,,,0.16,WUHU21623XXSP,2013-03-22 03:10:00,
2013-03-21 20:17:00,38.8,33.8,30.18,West,270,0.0,0.0,82,0.00,,,0.16,WUHU21623XXSP,2013-03-22 03:17:00,
2013-03-21 20:24:00,38.8,33.8,30.19,West,270,0.0,0.0,82,0.00,,,0.16,WUHU21623XXSP,2013-03-22 03:24:00,
2013-03-21 20:30:00,38.7,33.9,30.19,WNW,292,1.6,3.4,83,0.00,,,0.16,WUHU21623XXSP,2013-03-22 03:30:00,
2013-03-21 20:37:00,38.5,33.8,30.19,WNW,292,0.9,6.3,83,0.00,,,0.16,WUHU21623XXSP,2013-03-22 03:37:00,
2013-03-21 20:43:00,38.5,33.8,30.20,NW,315,0.0,1.3,83,0.00,,,0.16,WUHU21623XXSP,2013-03-22 03:43:00,
2013-03-21 20:49:00,38.5,33.5,30.20,NNE,22,0.0,3.8,82,0.00,,,0.16,WUHU21623XXSP,2013-03-22 03:49:00,
2013-03-21 20:56:00,38.5,33.5,30.20,NW,315,0.0,3.8,82,0.00,,,0.16,WUHU21623XXSP,2013-03-22 03:56:00,
2013-03-21 21:00:00,38.5,33.5,30.21,NW,315,0.0,2.0,82,0.00,,,0.16,WUHU21623XXSP,2013-03-22 04:00:00,
2013-03-21 21:01:00,38.5,33.5,30.21,NW,315,0.0,2.0,82,0.00,,,0.16,WUHU21623XXSP,2013-03-22 04:01:00,
2013-03-21 21:02:00,38.5,33.5,30.21,NW,315,0.0,2.0,82,0.00,,,0.16,WUHU21623XXSP,2013-03-22 04:02:00,
2013-03-21 21:08:00,38.5,33.5,30.21,NW,315,1.8,2.0,82,0.00,,,0.16,WUHU21623XXSP,2013-03-22 04:08:00,
2013-03-21 21:13:00,38.5,33.5,30.21,NW,315,1.6,1.8,82,0.00,,,0.16,WUHU21623XXSP,2013-03-22 04:13:00,
2013-03-21 21:18:00,38.5,33.5,30.21,WNW,292,0.7,3.1,82,0.00,,,0.16,WUHU21623XXSP,2013-03-22 04:18:00,
2013-03-21 21:23:00,38.5,33.5,30.21,WNW,292,0.0,4.0,82,0.00,,,0.16,WUHU21623XXSP,2013-03-22 04:23:00,
2013-03-21 21:28:00,38.5,33.5,30.20,West,270,0.0,4.0,82,0.00,,,0.16,WUHU21623XXSP,2013-03-22 04:28:00,
2013-03-21 21:33:00,38.5,33.5,30.21,West,270,0.0,3.4,82,0.00,,,0.16,WUHU21623XXSP,2013-03-22 04:33:00,
2013-03-21 21:40:00,38.5,33.5,30.21,NNW,337,3.8,3.8,82,0.00,,,0.16,WUHU21623XXSP,2013-03-22 04:40:00,
2013-03-21 21:45:00,38.5,33.2,30.21,WNW,292,0.0,4.3,81,0.00,,,0.16,WUHU21623XXSP,2013-03-22 04:45:00,
2013-03-21 21:51:00,38.5,33.2,30.21,NNW,337,3.1,4.7,81,0.00,,,0.16,WUHU21623XXSP,2013-03-22 04:51:00,
2013-03-21 21:56:00,38.5,33.2,30.22,WNW,292,0.0,4.7,81,0.00,,,0.16,WUHU21623XXSP,2013-03-22 04:56:00,
2013-03-21 22:02:00,38.5,33.2,30.21,NNW,337,2.5,3.8,81,0.00,,,0.16,WUHU21623XXSP,2013-03-22 05:02:00,
2013-03-21 22:08:00,38.5,32.9,30.22,NW,315,0.0,8.3,80,0.00,,,0.16,WUHU21623XXSP,2013-03-22 05:08:00,
2013-03-21 22:13:00,38.5,32.9,30.21,WSW,247,0.0,7.4,80,0.00,,,0.16,WUHU21623XXSP,2013-03-22 05:13:00,
2013-03-21 22:22:00,38.5,32.9,30.22,SSW,202,0.7,6.7,80,0.00,,,0.16,WUHU21623XXSP,2013-03-22 05:22:00,
2013-03-21 22:27:00,38.5,32.9,30.22,WNW,292,4.9,4.9,80,0.00,,,0.16,WUHU21623XXSP,2013-03-22 05:27:00,
2013-03-21 22:34:00,38.5,32.9,30.22,NNW,337,1.1,5.8,80,0.00,,,0.16,WUHU21623XXSP,2013-03-22 05:34:00,
2013-03-21 22:40:00,38.3,33.0,30.22,NW,315,8.7,8.7,81,0.02,,,0.18,WUHU21623XXSP,2013-03-22 05:40:00,
2013-03-21 22:45:00,37.9,32.9,30.22,NNW,337,3.8,8.7,82,0.02,,,0.18,WUHU21623XXSP,2013-03-22 05:45:00,
2013-03-21 22:52:00,37.9,32.9,30.22,WNW,292,2.0,8.7,82,0.02,,,0.18,WUHU21623XXSP,2013-03-22 05:52:00,
2013-03-21 22:57:00,37.6,32.9,30.22,NNW,337,0.0,3.8,83,0.04,,,0.20,WUHU21623XXSP,2013-03-22 05:57:00,
2013-03-21 23:02:00,37.2,32.8,30.22,NE,45,0.0,6.0,84,0.04,,,0.20,WUHU21623XXSP,2013-03-22 06:02:00,
2013-03-21 23:07:00,37.2,32.8,30.22,NNE,22,0.0,6.0,84,0.04,,,0.20,WUHU21623XXSP,2013-03-22 06:07:00,
2013-03-21 23:14:00,37.0,32.6,30.22,NNE,22,0.0,3.4,84,0.04,,,0.20,WUHU21623XXSP,2013-03-22 06:14:00,
2013-03-21 23:19:00,37.0,32.6,30.22,NNE,22,0.0,3.4,84,0.04,,,0.20,WUHU21623XXSP,2013-03-22 06:19:00,
2013-03-21 23:25:00,36.9,32.7,30.22,NNE,22,0.0,0.0,85,0.04,,,0.20,WUHU21623XXSP,2013-03-22 06:25:00,
2013-03-21 23:30:00,36.9,32.7,30.22,NNE,22,0.0,0.0,85,0.02,,,0.20,WUHU21623XXSP,2013-03-22 06:30:00,
2013-03-21 23:35:00,36.7,32.5,30.22,NNE,22,0.0,0.0,85,0.02,,,0.20,WUHU21623XXSP,2013-03-22 06:35:00,
2013-03-21 23:40:00,36.7,32.5,30.23,NNE,22,0.0,0.0,85,0.02,,,0.20,WUHU21623XXSP,2013-03-22 06:40:00,
2013-03-21 23:48:00,36.7,32.5,30.22,NNE,22,0.0,0.7,85,0.02,,,0.20,WUHU21623XXSP,2013-03-22 06:48:00,
2013-03-21 23:54:00,36.7,32.8,30.23,NNE,22,0.0,0.0,86,0.00,,,0.20,WUHU21623XXSP,2013-03-22 06:54:00,
2013-03-21 23:59:00,36.5,32.6,30.23,NNW,337,0.0,1.6,86,0.00,,,0.00,WUHU21623XXSP,2013-03-22 06:59:00,